Tracking 29777 objects as of 5-Oct-2024
HD Live streaming from Space Station
objects crossing your sky now

EXPLORER 22

Track EXPLORER 22 now!
10-day predictions
EXPLORER 22 is classified as:


NORAD ID: 899
Int'l Code: 1964-064A
Perigee: 873.6 km
Apogee: 1,049.3 km
Inclination: 79.7 °
Period: 104.1 minutes
Semi major axis: 7332 km
RCS: 1.5662 m2 (large)
Launch date: October 10, 1964
Source: United States (US)
Launch site: AIR FORCE WESTERN TEST RANGE (AFWTR)
Your satellite tracking list
Your tracking list is empty




NASA's NSSDC Master Catalog

Two Line Element Set (TLE):
1 00899U 64064A   24278.85533693  .00000737  00000-0  63669-3 0  9991
2 00899  79.6878  85.6965 0119828   0.6642 359.4644 13.82701101 19233
Source of the keplerian elements: AFSPC